Terminal Aerodrome Forecast
Issued by NWS Portland, OR

Home | Current Version | Previous Version | Text Only | Print | Product List | Glossary On
Versions: 1 2 3 4 5 6 7 8 9 10 11 12 13 14 15 16 17 18 19 20 21 22 23 24 25 26 27 28 29 30 31 32 33 34 35
505
FTUS46 KPQR 101724
TAFEUG
TAF
KEUG 101724Z 1018/1118 20006KT P6SM BKN035 OVC200
     FM110100 VRB04KT P6SM BKN050 OVC100
     FM111100 07004KT 6SM BR OVC050=

USA.gov is the U.S. government's official web portal to all federal, state and local government web resources and services.